Hazen, ND

11:42 PM CST on February 27, 2017 (GMT -0600)
Mercer County Regional

Weather History for KHZE - November, 2012

Change the Weather History Date:

Sunday, November 11, 2012

  Actual Average (KN60) Record (KN60)
Temperature  
Mean Temperature 10 °F -  
Max Temperature 15 °F 37 °F 64 °F (2005)
Min Temperature 6 °F 18 °F 0 °F (2013)
Degree Days  
Heating Degree Days 54    
Moisture  
Dew Point 7 °F    
Average Humidity 78    
Maximum Humidity 86    
Minimum Humidity 73    
Precipitation  
Precipitation 2.84 in - - ()
Sea Level Pressure  
Sea Level Pressure 29.88 in    
Wind  
Wind Speed 18 mph (West)    
Max Wind Speed 26 mph    
Max Gust Speed 36 mph    
Visibility 7 miles    
Events Snow    
Averages and records for this station are not official NWS values.
T = Trace of Precipitation, MM = Missing Value Source: NWS Daily Summary

Daily Weather History Graph

Daily Weather History Graph

Search for Another Location

Airport or City:

Trip Planner

Search our weather history database for the weather conditions in past years. The results will help you decide how hot, cold, wet, or windy it might be!

Date:

Astronomy

Nov. 11, 2012 Rise Set
Actual Time 7:45 AM CST 5:14 PM CST
Civil Twilight 7:12 AM CST 5:47 PM CST
Nautical Twilight 6:35 AM CST 6:24 PM CST
Astronomical Twilight 5:59 AM CST 7:00 PM CST
Moon 4:53 AM CST (11/11) 3:46 PM CST (11/11)
Length of Visible Light 10h 35m
Length of Day
9h 29m
Waning Crescent, 7% of the Moon is Illuminated
Nov 11
Waning Crescent
Nov 13
New
Nov 20
First Quarter
Nov 28
Full
Dec 6
Last Quarter

Hourly Weather History & Observations

Time (CST) Temp. Windchill Dew Point Humidity Pressure Visibility Wind Dir Wind Speed Gust Speed Precip Events Conditions
12:15 AM 14.0 °F -0.2 °F 8.6 °F 79% 29.81 in 10.0 mi West 12.7 mph 20.7 mph N/A Snow Light Snow
12:35 AM 14.0 °F -1.4 °F 8.6 °F 79% 29.81 in 10.0 mi West 15.0 mph 19.6 mph N/A   Clear
12:55 AM 14.0 °F -3.4 °F 6.8 °F 73% 29.82 in 10.0 mi West 19.6 mph 24.2 mph N/A   Scattered Clouds
1:15 AM 12.2 °F -6.3 °F 6.8 °F 79% 29.82 in 10.0 mi West 20.7 mph 24.2 mph N/A Snow Light Snow
1:35 AM 10.4 °F -6.6 °F 6.8 °F 85% 29.83 in 10.0 mi West 16.1 mph 21.9 mph N/A   Overcast
1:55 AM 10.4 °F -6.0 °F 5.0 °F 79% 29.83 in 10.0 mi West 15.0 mph - N/A   Overcast
2:15 AM 8.6 °F -8.3 °F 3.2 °F 79% 29.83 in 10.0 mi West 15.0 mph - N/A   Overcast
2:35 AM 8.6 °F -10.0 °F 3.2 °F 79% 29.83 in 10.0 mi West 18.4 mph 25.3 mph N/A   Overcast
2:55 AM 8.6 °F -10.0 °F 3.2 °F 79% 29.83 in 10.0 mi West 18.4 mph 24.2 mph N/A   Overcast
3:15 AM 8.6 °F -8.9 °F 3.2 °F 79% 29.83 in 10.0 mi West 16.1 mph 21.9 mph N/A   Overcast
3:35 AM 8.6 °F -8.3 °F 1.4 °F 73% 29.83 in 10.0 mi West 15.0 mph 21.9 mph N/A   Mostly Cloudy
3:55 AM 8.6 °F -8.3 °F 1.4 °F 73% 29.83 in 10.0 mi West 15.0 mph 21.9 mph N/A   Scattered Clouds
4:15 AM 8.6 °F -8.3 °F 1.4 °F 73% 29.82 in 10.0 mi West 15.0 mph - N/A   Mostly Cloudy
4:35 AM 6.8 °F -9.3 °F 1.4 °F 79% 29.83 in 10.0 mi West 12.7 mph - N/A   Scattered Clouds
4:55 AM 6.8 °F -11.3 °F 1.4 °F 79% 29.82 in 10.0 mi West 16.1 mph - N/A   Scattered Clouds
5:35 AM 6.8 °F -10.7 °F 1.4 °F 79% 29.82 in 10.0 mi West 15.0 mph - N/A   Overcast
5:55 AM 6.8 °F -10.7 °F 1.4 °F 79% 29.82 in 10.0 mi West 15.0 mph - N/A   Scattered Clouds
6:15 AM 6.8 °F -10.7 °F 1.4 °F 79% 29.83 in 10.0 mi West 15.0 mph - N/A   Scattered Clouds
6:35 AM 6.8 °F -11.8 °F 1.4 °F 79% 29.82 in 10.0 mi West 17.3 mph - N/A   Overcast
6:55 AM 6.8 °F -11.3 °F 1.4 °F 79% 29.82 in 10.0 mi West 16.1 mph 20.7 mph N/A   Overcast
7:35 AM 6.8 °F -11.3 °F 1.4 °F 79% 29.83 in 10.0 mi West 16.1 mph 20.7 mph N/A   Overcast
8:15 AM 6.8 °F -11.8 °F 1.4 °F 79% 29.84 in 10.0 mi West 17.3 mph 24.2 mph N/A   Mostly Cloudy
8:35 AM 8.6 °F -8.9 °F 1.4 °F 73% 29.84 in 10.0 mi WSW 16.1 mph 21.9 mph N/A   Partly Cloudy
9:15 AM 8.6 °F -8.9 °F 3.2 °F 79% 29.85 in 10.0 mi WSW 16.1 mph - N/A   Clear
9:35 AM 8.6 °F -9.5 °F 5.0 °F 85% 29.85 in 10.0 mi WSW 17.3 mph - N/A   Clear
9:55 AM 10.4 °F -8.2 °F 5.0 °F 79% 29.85 in 10.0 mi West 19.6 mph 24.2 mph N/A   Partly Cloudy
10:15 AM 12.2 °F -6.7 °F 6.8 °F 79% 29.85 in 10.0 mi West 21.9 mph 25.3 mph N/A Snow Light Snow
10:35 AM 14.0 °F -2.0 °F 6.8 °F 73% 29.85 in 10.0 mi West 16.1 mph 24.2 mph N/A Snow Light Snow
11:15 AM 15.8 °F -2.3 °F 8.6 °F 73% 29.85 in 6.0 mi West 23.0 mph 28.8 mph N/A Snow Light Snow
11:35 AM 15.8 °F -2.7 °F 8.6 °F 73% 29.85 in 9.0 mi West 24.2 mph 28.8 mph N/A Snow Light Snow
11:55 AM 15.8 °F -2.7 °F 8.6 °F 73% 29.85 in 4.0 mi West 24.2 mph 31.1 mph 0.02 in Snow Light Snow
12:15 PM 15.8 °F -2.3 °F 8.6 °F 73% 29.85 in 4.0 mi West 23.0 mph 32.2 mph N/A Snow Light Snow
12:35 PM 15.8 °F -2.3 °F 8.6 °F 73% 29.84 in 7.0 mi West 23.0 mph 32.2 mph 0.01 in Snow Light Snow
12:55 PM 15.8 °F -3.1 °F 8.6 °F 73% 29.84 in 8.0 mi WNW 25.3 mph 35.7 mph 0.01 in Snow Light Snow
1:15 PM 15.8 °F -2.7 °F 8.6 °F 73% 29.84 in 7.0 mi WNW 24.2 mph 33.4 mph N/A Snow Light Snow
1:35 PM 15.8 °F -3.1 °F 8.6 °F 73% 29.85 in 5.0 mi West 25.3 mph 32.2 mph N/A Snow Light Snow
1:55 PM 15.8 °F -1.1 °F 8.6 °F 73% 29.85 in 4.0 mi West 19.6 mph 31.1 mph 0.02 in Snow Light Snow
2:15 PM 15.8 °F -1.1 °F 8.6 °F 73% 29.85 in 4.0 mi WNW 19.6 mph 29.9 mph 0.01 in Snow Light Snow
2:35 PM 15.8 °F -1.1 °F 10.4 °F 79% 29.86 in 3.0 mi WNW 19.6 mph 28.8 mph 0.02 in Snow Light Snow
2:55 PM 15.8 °F -1.1 °F 10.4 °F 79% 29.86 in 1.5 mi WNW 19.6 mph 26.5 mph 0.08 in Snow Light Snow
3:15 PM 15.8 °F -1.1 °F 10.4 °F 79% 29.86 in 1.5 mi WNW 19.6 mph 25.3 mph 0.06 in Snow Light Snow
3:35 PM 15.8 °F -1.5 °F 10.4 °F 79% 29.87 in 1.2 mi WNW 20.7 mph 26.5 mph 0.27 in Snow Light Snow
3:55 PM 15.8 °F -1.9 °F 10.4 °F 79% 29.88 in 1.2 mi WNW 21.9 mph 27.6 mph 0.65 in Snow Light Snow
4:15 PM 15.8 °F -0.6 °F 10.4 °F 79% 29.88 in 3.0 mi WNW 18.4 mph 31.1 mph 0.11 in Snow Light Snow
4:35 PM 15.8 °F -2.3 °F 12.2 °F 86% 29.89 in 2.0 mi WNW 23.0 mph 27.6 mph 0.21 in Snow Light Snow
4:55 PM 15.8 °F -1.5 °F 12.2 °F 86% 29.89 in 1.0 mi WNW 20.7 mph 25.3 mph 0.38 in Snow Light Snow
5:15 PM 15.8 °F -2.7 °F 12.2 °F 86% 29.89 in 1.5 mi WNW 24.2 mph 32.2 mph 0.06 in Snow Light Snow
5:35 PM 15.8 °F -3.4 °F 10.4 °F 79% 29.90 in 2.0 mi WNW 26.5 mph 31.1 mph 0.15 in Snow Light Snow
5:55 PM 15.8 °F -2.3 °F 10.4 °F 79% 29.91 in 3.0 mi WNW 23.0 mph 29.9 mph 0.20 in Snow Light Snow
6:15 PM 15.8 °F -1.1 °F 10.4 °F 79% 29.92 in 2.5 mi WNW 19.6 mph 29.9 mph 0.04 in Snow Light Snow
6:35 PM 15.8 °F -1.9 °F 10.4 °F 79% 29.93 in 4.0 mi WNW 21.9 mph 32.2 mph 0.07 in Snow Light Snow
6:55 PM 15.8 °F -1.5 °F 10.4 °F 79% 29.93 in 4.0 mi WNW 20.7 mph 27.6 mph 0.09 in Snow Light Snow
7:15 PM 15.8 °F -0.6 °F 8.6 °F 73% 29.93 in 3.0 mi WNW 18.4 mph 28.8 mph 0.03 in Snow Light Snow
7:35 PM 14.0 °F -3.4 °F 10.4 °F 86% 29.94 in 2.5 mi WNW 19.6 mph 29.9 mph 0.13 in Snow Light Snow
7:55 PM 14.0 °F -3.4 °F 10.4 °F 86% 29.94 in 2.0 mi WNW 19.6 mph 31.1 mph 0.23 in Snow Light Snow
8:15 PM 14.0 °F -3.4 °F 8.6 °F 79% 29.95 in 3.0 mi WNW 19.6 mph 31.1 mph 0.08 in Snow Light Snow
8:35 PM 14.0 °F -3.0 °F 8.6 °F 79% 29.95 in 2.0 mi WNW 18.4 mph 29.9 mph 0.26 in Snow Light Snow
8:55 PM 14.0 °F -3.4 °F 8.6 °F 79% 29.96 in 1.8 mi WNW 19.6 mph 28.8 mph 0.57 in Snow Light Snow
9:15 PM 14.0 °F -2.0 °F 8.6 °F 79% 29.97 in 2.5 mi WNW 16.1 mph 25.3 mph 0.20 in Snow Light Snow
9:35 PM 14.0 °F -2.5 °F 8.6 °F 79% 29.98 in 3.0 mi West 17.3 mph - 0.35 in Snow Light Snow
9:55 PM 14.0 °F -2.5 °F 8.6 °F 79% 29.98 in 2.5 mi West 17.3 mph - 0.56 in Snow Light Snow
10:15 PM 14.0 °F -3.0 °F 10.4 °F 86% 29.98 in 3.0 mi West 18.4 mph 21.9 mph 0.01 in Snow Light Snow
10:35 PM 14.0 °F -2.0 °F 8.6 °F 79% 29.98 in 5.0 mi West 16.1 mph 26.5 mph 0.03 in Snow Light Snow
10:55 PM 14.0 °F -3.0 °F 6.8 °F 73% 29.98 in 10.0 mi WNW 18.4 mph 25.3 mph 0.03 in   Overcast
11:15 PM 12.2 °F -4.8 °F 6.8 °F 79% 29.99 in 10.0 mi WNW 17.3 mph - N/A   Overcast
11:35 PM 10.4 °F -5.4 °F 5.0 °F 79% 29.99 in 10.0 mi West 13.8 mph - N/A   Overcast
11:55 PM 10.4 °F -7.2 °F 5.0 °F 79% 29.99 in 10.0 mi West 17.3 mph 26.5 mph N/A   Overcast